Date String (YYYY-MM-DD hh:mm:ss) UTC,Instrument flags,Ambient pressure (hPa),Sample flow (lpm),Bypass flow (lpm),Sample temperature (°C),Ambient temperature (°C),ASC tube jacket temperature (°C),LED temperature (°C),Box temperature (°C),Sample RH (%),Span deviation,Mass concentration (μg/m³),Mass concentration (μg/m³),Mass concentration (μg/m³)
DateTimeUTC,F1_M11,P_M11,Q1_M11,Q2_M11,T1_M11,T2_M11,T3_M11,T4_M11,T5_M11,U1_M11,ZSPAN_M11,X0_M11,X2_M11,X1_M11
2022-03-22 21:00:00,,0827.7,5.00,0.00,21.6,20.9,00.0,30.7,23.3,11.7,0000.0,0004.04,0000.92,0000.50
2022-03-22 21:01:00,,0827.7,5.00,0.00,21.6,20.9,00.0,30.7,23.3,11.8,0000.0,0004.37,0001.01,0000.52
2022-03-22 21:02:00,,0827.7,4.98,0.00,21.6,21.1,00.0,30.7,23.3,11.8,0000.0,0004.55,0001.07,0000.55
2022-03-22 21:03:00,,0827.6,5.02,0.00,21.7,22.0,00.0,30.7,23.6,12.2,0000.0,0005.30,0001.09,0000.56
2022-03-22 21:04:00,,0827.7,5.00,0.00,21.9,23.0,00.0,30.8,23.9,12.3,0000.0,0005.94,0001.19,0000.59
2022-03-22 21:05:00,,0827.7,5.01,0.00,22.0,23.3,00.0,30.8,24.1,12.6,0000.0,0006.07,0001.24,0000.62
2022-03-22 21:06:00,,0827.7,4.99,0.00,22.1,23.0,00.0,30.8,24.1,13.0,0000.0,0007.01,0001.29,0000.65
2022-03-22 21:07:00,,0827.6,5.00,0.00,22.1,22.6,00.0,30.9,24.0,13.3,0000.0,0007.27,0001.34,0000.66
2022-03-22 21:08:00,,0827.6,5.00,0.00,22.1,22.3,00.0,30.9,23.9,13.6,0000.0,0007.10,0001.47,0000.68
2022-03-22 21:09:00,,0827.6,5.01,0.00,22.1,22.0,00.0,30.9,23.9,13.6,0000.0,0007.40,0001.55,0000.68
2022-03-22 21:10:00,,0827.6,5.00,0.00,22.1,21.8,00.0,30.9,23.8,13.7,0000.0,0007.75,0001.66,0000.69
2022-03-22 21:11:00,,0827.6,5.00,0.00,22.0,21.6,00.0,30.9,23.8,13.6,0000.0,0007.70,0001.70,0000.70
2022-03-22 21:12:00,,0827.5,4.98,0.00,22.0,21.5,00.0,30.9,23.7,13.6,0000.0,0007.71,0001.77,0000.71
2022-03-22 21:13:00,,0827.6,5.01,0.00,22.0,21.3,00.0,30.9,23.7,13.4,0000.0,0007.78,0001.81,0000.73
2022-03-22 21:14:00,,0827.6,5.01,0.00,21.9,21.3,00.0,30.9,23.7,13.4,0000.0,0008.28,0001.95,0000.74
2022-03-22 21:15:00,,0827.7,5.00,0.00,22.0,21.9,00.0,31.0,23.8,13.3,0000.0,0008.14,0001.99,0000.74
2022-03-22 21:16:00,,0827.6,5.00,0.00,22.2,22.9,00.0,31.0,24.1,13.4,0000.0,0008.21,0002.04,0000.75
2022-03-22 21:17:00,,0827.6,5.00,0.00,22.3,23.0,00.0,31.0,24.3,13.2,0000.0,0007.69,0002.03,0000.75
2022-03-22 21:18:00,,0827.5,5.00,0.00,22.3,22.8,00.0,31.1,24.2,13.3,0000.0,0007.96,0002.05,0000.75
2022-03-22 21:19:00,,0827.5,4.99,0.00,22.3,22.5,00.0,31.1,24.1,12.9,0000.0,0007.96,0002.02,0000.75
2022-03-22 21:20:00,,0827.5,5.01,0.00,22.3,22.2,00.0,31.1,24.1,12.5,0000.0,0007.98,0002.00,0000.74
2022-03-22 21:21:00,,0827.5,4.98,0.00,22.3,22.0,00.0,31.1,24.0,12.4,0000.0,0007.66,0001.89,0000.74
2022-03-22 21:22:00,,0827.5,5.00,0.00,22.2,21.8,00.0,31.1,23.9,12.4,0000.0,0007.64,0001.87,0000.74
2022-03-22 21:23:00,,0827.4,5.00,0.00,22.2,21.7,00.0,31.1,23.9,12.7,0000.0,0007.49,0001.76,0000.74
2022-03-22 21:24:00,,0827.5,5.01,0.00,22.2,21.6,00.0,31.1,23.9,12.7,0000.0,0007.40,0001.70,0000.74
2022-03-22 21:25:00,,0827.6,5.00,0.00,22.2,21.5,00.0,31.1,23.9,12.9,0000.0,0005.87,0001.60,0000.74
2022-03-22 21:26:00,,0827.5,5.00,0.00,22.2,21.4,00.0,31.1,23.8,12.7,0000.0,0005.60,0001.55,0000.75
2022-03-22 21:27:00,,0827.5,5.00,0.00,22.1,21.4,00.0,31.1,23.8,12.8,0000.0,0005.56,0001.50,0000.74
2022-03-22 21:28:00,,0827.5,4.98,0.00,22.1,21.4,00.0,31.1,23.8,12.9,0000.0,0005.81,0001.46,0000.74
2022-03-22 21:29:00,,0827.5,5.00,0.00,22.1,21.4,00.0,31.1,23.8,12.7,0000.0,0005.40,0001.40,0000.74
2022-03-22 21:30:00,,0827.5,5.00,0.00,22.1,21.3,00.0,31.1,23.8,12.5,0000.0,0004.74,0001.33,0000.73
2022-03-22 21:31:00,,0827.5,5.00,0.00,22.1,21.3,00.0,31.1,23.8,12.4,0000.0,0003.99,0001.25,0000.72
2022-03-22 21:32:00,,0827.5,5.01,0.00,22.1,21.5,00.0,31.1,23.8,12.5,0000.0,0004.08,0001.24,0000.71
2022-03-22 21:33:00,,0827.6,5.01,0.00,22.2,22.4,00.0,31.2,24.1,12.9,0000.0,0004.41,0001.26,0000.71
2022-03-22 21:34:00,,0827.4,5.01,0.00,22.4,23.4,00.0,31.2,24.4,12.9,0000.0,0004.50,0001.28,0000.72
2022-03-22 21:35:00,,0827.5,4.99,0.00,22.5,23.5,00.0,31.3,24.5,13.1,0000.0,0004.58,0001.28,0000.73
2022-03-22 21:36:00,,0827.5,5.00,0.00,22.5,23.2,00.0,31.3,24.5,13.2,0000.0,0004.61,0001.30,0000.75
2022-03-22 21:37:00,,0827.5,4.99,0.00,22.5,22.8,00.0,31.3,24.4,13.3,0000.0,0004.47,0001.26,0000.76
2022-03-22 21:38:00,,0827.5,5.01,0.00,22.5,22.5,00.0,31.3,24.3,13.4,0000.0,0004.32,0001.26,0000.77
2022-03-22 21:39:00,,0827.6,5.00,0.00,22.5,22.3,00.0,31.3,24.2,13.4,0000.0,0003.94,0001.28,0000.78
2022-03-22 21:40:00,,0827.6,5.00,0.00,22.5,22.1,00.0,31.4,24.2,13.5,0000.0,0003.23,0001.27,0000.79
2022-03-22 21:41:00,,0827.5,5.00,0.00,22.4,21.9,00.0,31.4,24.1,13.6,0000.0,0003.70,0001.32,0000.81
2022-03-22 21:42:00,,0827.5,5.00,0.00,22.4,21.8,00.0,31.4,24.0,13.6,0000.0,0005.38,0001.34,0000.83
2022-03-22 21:43:00,,0827.5,5.00,0.00,22.3,21.8,00.0,31.4,24.0,13.4,0000.0,0005.39,0001.33,0000.85
2022-03-22 21:44:00,,0827.6,5.00,0.00,22.5,22.6,00.0,31.4,24.3,13.4,0000.0,0004.95,0001.30,0000.85
2022-03-22 21:45:00,,0827.6,5.01,0.00,22.6,23.6,00.0,31.5,24.7,13.2,0000.0,0005.49,0001.28,0000.84
2022-03-22 21:46:00,,0827.6,4.99,0.00,22.8,24.0,00.0,31.5,24.8,13.1,0000.0,0006.30,0001.31,0000.84
2022-03-22 21:47:00,,0827.6,5.00,0.00,22.8,23.6,00.0,31.5,24.8,13.0,0000.0,0006.50,0001.29,0000.81
2022-03-22 21:48:00,,0827.5,5.00,0.00,22.8,23.2,00.0,31.6,24.7,12.9,0000.0,0006.74,0001.27,0000.79
2022-03-22 21:49:00,,0827.6,5.01,0.00,22.8,22.9,00.0,31.6,24.6,12.7,0000.0,0006.84,0001.25,0000.77
2022-03-22 21:50:00,,0827.5,5.01,0.00,22.7,22.6,00.0,31.6,24.5,12.7,0000.0,0006.80,0001.23,0000.76
2022-03-22 21:51:00,,0827.6,4.98,0.00,22.7,22.3,00.0,31.6,24.4,12.7,0000.0,0006.93,0001.23,0000.76
2022-03-22 21:52:00,,0827.5,5.01,0.00,22.7,22.1,00.0,31.6,24.3,12.9,0000.0,0006.41,0001.20,0000.74
2022-03-22 21:53:00,,0827.5,5.01,0.00,22.6,22.0,00.0,31.6,24.3,12.7,0000.0,0004.63,0001.18,0000.73
2022-03-22 21:54:00,,0827.6,5.00,0.00,22.6,21.9,00.0,31.6,24.3,12.9,0000.0,0005.21,0001.19,0000.71
2022-03-22 21:55:00,,0827.6,5.00,0.00,22.6,21.8,00.0,31.6,24.2,13.2,0000.0,0005.32,0001.19,0000.71
2022-03-22 21:56:00,,0827.6,5.00,0.00,22.6,21.8,00.0,31.6,24.2,13.0,0000.0,0005.58,0001.20,0000.70
2022-03-22 21:57:00,,0827.5,5.00,0.00,22.5,21.7,00.0,31.6,24.2,13.0,0000.0,0004.46,0001.14,0000.69
2022-03-22 21:58:00,,0827.6,4.99,0.00,22.5,21.7,00.0,31.6,24.1,12.9,0000.0,0004.12,0001.08,0000.68
2022-03-22 21:59:00,,0827.7,5.00,0.00,22.5,22.2,00.0,31.6,24.2,12.7,0000.0,0003.95,0001.14,0000.68
